FWI40J TFFR-LFPO

Flight info

Callsign FWI40J
Flight time N/A
Altitude 37000
Route CAIRN2F CAIRN DCT BNJEE DCT 20N059W 25N056W 30N052W 35N047W 40N040W/M085F390 44N030W 46N020W 46N015W DCT BUNAV DCT TIVLU/N0490F400 DCT AKEMO DCT TERPO DCT ANG/N0479F270 UN482 DEKJA/N0486F280 UN482 NIMER DCT CAD
Aircraft A35K/H-SDE2E3GHIJ3J4J5LM1ORWXY/LB1D1

Departure

Time 2026-05-05 20:48
Airport Maryse Condé International Airport (TFFR)

Arrival

Time N/A
Airport Paris-Orly Airport (LFPO)
Time Latitude Longitude Altitude Speed Heading
2026-05-05 20:08 16.26882 -61.52610 29 ft 0 kts 348°
2026-05-05 20:10 16.26898 -61.52735 29 ft 0 kts 31°
2026-05-05 20:37 16.26897 -61.52735 29 ft 1 kts 31°
2026-05-05 20:37 16.26877 -61.52747 28 ft 4 kts 31°
2026-05-05 20:37 16.26857 -61.52758 29 ft 4 kts
2026-05-05 20:38 16.26835 -61.52754 28 ft 4 kts 306°
2026-05-05 20:38 16.26825 -61.52729 28 ft 4 kts 282°
2026-05-05 20:38 16.26823 -61.52716 28 ft 0 kts 279°
2026-05-05 20:41 16.26823 -61.52718 29 ft 1 kts 279°
2026-05-05 20:42 16.26826 -61.52734 29 ft 3 kts 280°
2026-05-05 20:42 16.26831 -61.52767 29 ft 6 kts 280°
2026-05-05 20:42 16.26840 -61.52817 29 ft 8 kts 280°
2026-05-05 20:42 16.26844 -61.52883 29 ft 10 kts 260°
2026-05-05 20:43 16.26795 -61.52935 29 ft 11 kts 203°
2026-05-05 20:43 16.26712 -61.52954 29 ft 13 kts 191°
2026-05-05 20:43 16.26619 -61.52973 29 ft 14 kts 191°
2026-05-05 20:43 16.26524 -61.53005 31 ft 14 kts 226°
2026-05-05 20:44 16.26516 -61.53100 32 ft 14 kts 282°
2026-05-05 20:44 16.26536 -61.53208 32 ft 16 kts 281°
2026-05-05 20:44 16.26559 -61.53334 31 ft 19 kts 281°
2026-05-05 20:44 16.26586 -61.53474 32 ft 20 kts 281°
2026-05-05 20:45 16.26645 -61.53788 27 ft 26 kts 281°
2026-05-05 20:45 16.26683 -61.53982 28 ft 28 kts 281°
2026-05-05 20:45 16.26722 -61.54194 23 ft 32 kts 280°
2026-05-05 20:46 16.26765 -61.54425 16 ft 32 kts 281°
2026-05-05 20:46 16.26800 -61.54615 13 ft 23 kts 281°
2026-05-05 20:46 16.26845 -61.54720 13 ft 11 kts 316°
2026-05-05 20:46 16.26858 -61.54767 15 ft 4 kts 243°
2026-05-05 20:47 16.26840 -61.54773 15 ft 2 kts 174°
2026-05-05 20:47 16.26835 -61.54768 15 ft 0 kts 146°
2026-05-05 20:47 16.26827 -61.54751 14 ft 5 kts 114°
2026-05-05 20:47 16.26819 -61.54719 13 ft 0 kts 101°
2026-05-05 20:48 16.26786 -61.54541 14 ft 65 kts 101°
2026-05-05 20:48 16.26645 -61.53791 28 ft 146 kts 101°
2026-05-05 20:48 16.26451 -61.52646 669 ft 166 kts 101°
2026-05-05 20:49 16.26222 -61.51449 1543 ft 175 kts 100°
2026-05-05 20:49 16.25964 -61.50126 1795 ft 198 kts 100°
2026-05-05 20:49 16.25678 -61.48646 2072 ft 220 kts 101°
2026-05-05 20:49 16.25357 -61.47011 2414 ft 241 kts 100°
2026-05-05 20:50 16.25028 -61.45252 2975 ft 251 kts 98°
2026-05-05 20:50 16.25058 -61.43442 3769 ft 251 kts 77°
2026-05-05 20:50 16.25785 -61.41788 4494 ft 256 kts 55°
2026-05-05 20:50 16.26972 -61.40364 5144 ft 264 kts 49°
2026-05-05 20:51 16.28233 -61.38946 5829 ft 269 kts 51°
2026-05-05 20:51 16.29441 -61.37449 6534 ft 272 kts 53°
2026-05-05 20:51 16.30646 -61.35925 7238 ft 273 kts 53°
2026-05-05 20:51 16.31861 -61.34398 7996 ft 275 kts 52°
2026-05-05 20:52 16.33092 -61.32856 8680 ft 280 kts 52°
2026-05-05 20:52 16.34344 -61.31294 9324 ft 282 kts 52°
2026-05-05 20:52 16.35606 -61.29720 9876 ft 285 kts 51°
2026-05-05 20:52 16.36872 -61.28141 10295 ft 292 kts 52°
2026-05-05 20:53 16.38204 -61.26480 10540 ft 306 kts 51°
2026-05-05 20:53 16.39594 -61.24747 10769 ft 319 kts 51°
2026-05-05 20:53 16.40174 -61.24024 10863 ft 324 kts 51°
2026-05-05 20:53 16.41552 -61.22306 11078 ft 336 kts 51°
2026-05-05 20:54 16.43076 -61.20405 11266 ft 348 kts 51°
2026-05-05 20:54 16.44653 -61.18439 11486 ft 359 kts 51°
2026-05-05 20:54 16.46277 -61.16413 11672 ft 370 kts 51°
2026-05-05 20:54 16.47948 -61.14328 11891 ft 378 kts 51°
2026-05-05 20:55 16.49647 -61.12208 12174 ft 384 kts 51°
2026-05-05 20:55 16.51366 -61.10061 12573 ft 387 kts 50°
2026-05-05 20:55 16.53101 -61.07894 12909 ft 391 kts 50°
2026-05-05 20:55 16.54846 -61.05713 13291 ft 393 kts 50°
2026-05-05 20:56 16.56605 -61.03514 13640 ft 396 kts 50°
2026-05-05 20:56 16.58378 -61.01297 13977 ft 400 kts 50°
2026-05-05 20:56 16.60168 -60.99058 14292 ft 403 kts 50°
2026-05-05 20:56 16.61966 -60.96808 14678 ft 404 kts 50°
2026-05-05 20:57 16.63767 -60.94554 15063 ft 405 kts 49°
2026-05-05 20:57 16.65574 -60.92291 15436 ft 407 kts 49°
2026-05-05 20:57 16.67389 -60.90018 15807 ft 408 kts 49°
2026-05-05 20:57 16.69210 -60.87736 16189 ft 410 kts 49°
2026-05-05 20:58 16.71038 -60.85444 16572 ft 411 kts 49°
2026-05-05 20:58 16.72851 -60.83171 16932 ft 414 kts 49°
2026-05-05 20:58 16.74694 -60.80859 17298 ft 416 kts 49°
2026-05-05 20:58 16.76549 -60.78532 17650 ft 418 kts 49°
2026-05-05 20:59 16.78413 -60.76192 18006 ft 420 kts 49°
2026-05-05 20:59 16.80282 -60.73845 18360 ft 422 kts 48°
2026-05-05 20:59 16.82168 -60.71477 18649 ft 424 kts 48°
2026-05-05 20:59 16.84062 -60.69097 18926 ft 427 kts 49°
2026-05-05 21:00 16.85966 -60.66704 19185 ft 430 kts 49°
2026-05-05 21:00 16.87882 -60.64295 19485 ft 432 kts 49°
2026-05-05 21:00 16.89807 -60.61881 19759 ft 434 kts 48°
2026-05-05 21:00 16.91872 -60.59581 20031 ft 435 kts 41°
2026-05-05 21:01 16.94223 -60.57604 20296 ft 435 kts 33°
2026-05-05 21:01 16.96815 -60.55955 20549 ft 437 kts 28°
2026-05-05 21:01 16.99461 -60.54455 20791 ft 439 kts 26°
2026-05-05 21:01 17.02187 -60.52992 21021 ft 442 kts 26°
2026-05-05 21:02 17.04948 -60.51542 21275 ft 444 kts 26°
2026-05-05 21:02 17.07715 -60.50088 21508 ft 447 kts 26°
2026-05-05 21:02 17.10501 -60.48614 21738 ft 449 kts 26°
2026-05-05 21:02 17.13295 -60.47122 21913 ft 453 kts 27°
2026-05-05 21:03 17.16111 -60.45607 22164 ft 455 kts 27°
2026-05-05 21:03 17.18927 -60.44087 22421 ft 457 kts 27°
2026-05-05 21:03 17.21761 -60.42552 22641 ft 459 kts 27°
2026-05-05 21:03 17.24607 -60.41010 22874 ft 462 kts 27°
2026-05-05 21:04 17.27464 -60.39461 23086 ft 464 kts 28°
2026-05-05 21:04 17.30341 -60.37902 23339 ft 466 kts 28°
2026-05-05 21:04 17.33231 -60.36335 23529 ft 469 kts 28°
2026-05-05 21:04 17.36135 -60.34761 23726 ft 471 kts 28°
2026-05-05 21:05 17.39052 -60.33181 23920 ft 473 kts 28°
2026-05-05 21:05 17.41981 -60.31593 24070 ft 476 kts 28°
2026-05-05 21:05 17.44920 -60.29999 24298 ft 476 kts 28°
2026-05-05 21:05 17.47866 -60.28401 24487 ft 478 kts 28°
2026-05-05 21:06 17.50791 -60.26813 24676 ft 479 kts 28°
2026-05-05 21:06 17.53758 -60.25201 24883 ft 480 kts 28°
2026-05-05 21:06 17.56732 -60.23586 25065 ft 482 kts 28°
2026-05-05 21:06 17.59705 -60.21970 25252 ft 483 kts 28°
2026-05-05 21:07 17.62695 -60.20344 25445 ft 484 kts 28°
2026-05-05 21:07 17.65694 -60.18713 25603 ft 486 kts 28°
2026-05-05 21:07 17.68696 -60.17079 25817 ft 487 kts 28°
2026-05-05 21:07 17.71709 -60.15439 26015 ft 488 kts 28°
2026-05-05 21:08 17.74723 -60.13798 26180 ft 490 kts 28°
2026-05-05 21:08 17.77754 -60.12146 26365 ft 491 kts 28°
2026-05-05 21:08 17.80788 -60.10493 26544 ft 492 kts 28°
2026-05-05 21:08 17.83833 -60.08833 26728 ft 494 kts 28°
2026-05-05 21:09 17.86884 -60.07169 26922 ft 495 kts 28°
2026-05-05 21:09 17.89947 -60.05498 27093 ft 496 kts 28°
2026-05-05 21:09 17.92971 -60.03847 27270 ft 498 kts 28°
2026-05-05 21:09 17.96052 -60.02165 27450 ft 499 kts 28°
2026-05-05 21:10 17.99132 -60.00483 27623 ft 500 kts 28°
2026-05-05 21:10 18.02233 -59.98810 27807 ft 502 kts 27°
2026-05-05 21:10 18.05381 -59.97216 27982 ft 503 kts 26°
2026-05-05 21:10 18.08561 -59.95666 28139 ft 504 kts 25°
2026-05-05 21:11 18.11757 -59.94126 28309 ft 506 kts 25°
2026-05-05 21:11 18.14958 -59.92579 28480 ft 507 kts 25°
2026-05-05 21:11 18.18164 -59.91019 28623 ft 508 kts 25°
2026-05-05 21:11 18.21377 -59.89443 28775 ft 510 kts 25°
2026-05-05 21:12 18.24594 -59.87856 28916 ft 511 kts 26°
2026-05-05 21:12 18.27818 -59.86261 29065 ft 513 kts 26°
2026-05-05 21:12 18.31048 -59.84660 29222 ft 514 kts 26°
2026-05-05 21:12 18.34287 -59.83054 29376 ft 515 kts 26°
2026-05-05 21:13 18.37530 -59.81445 29526 ft 516 kts 26°
2026-05-05 21:13 18.40781 -59.79831 29684 ft 517 kts 26°
2026-05-05 21:13 18.44044 -59.78212 29824 ft 518 kts 26°
2026-05-05 21:13 18.47306 -59.76592 29988 ft 520 kts 26°
2026-05-05 21:14 18.50583 -59.74965 30111 ft 521 kts 26°
2026-05-05 21:14 18.53870 -59.73333 30244 ft 522 kts 26°
2026-05-05 21:14 18.57110 -59.71723 30439 ft 522 kts 25°
2026-05-05 21:14 18.60387 -59.70094 30673 ft 521 kts 25°
2026-05-05 21:15 18.63663 -59.68464 30909 ft 520 kts 25°
2026-05-05 21:15 18.66928 -59.66840 31136 ft 519 kts 25°
2026-05-05 21:15 18.70195 -59.65214 31371 ft 518 kts 25°
2026-05-05 21:15 18.73448 -59.63594 31627 ft 517 kts 25°
2026-05-05 21:16 18.76696 -59.61976 31872 ft 516 kts 25°
2026-05-05 21:16 18.79938 -59.60359 32105 ft 515 kts 25°
2026-05-05 21:16 18.83184 -59.58741 32349 ft 515 kts 25°
2026-05-05 21:16 18.86417 -59.57128 32584 ft 514 kts 25°
2026-05-05 21:17 18.89648 -59.55515 32825 ft 513 kts 25°
2026-05-05 21:17 18.92869 -59.53906 33104 ft 512 kts 25°
2026-05-05 21:17 18.96089 -59.52298 33370 ft 510 kts 25°
2026-05-05 21:17 18.99293 -59.50697 33633 ft 509 kts 25°
2026-05-05 21:18 19.02488 -59.49099 33974 ft 507 kts 25°
2026-05-05 21:18 19.05677 -59.47504 34254 ft 505 kts 24°
2026-05-05 21:18 19.08810 -59.45936 34490 ft 505 kts 24°
2026-05-05 21:18 19.11979 -59.44349 34729 ft 504 kts 24°
2026-05-05 21:19 19.15148 -59.42762 34960 ft 503 kts 24°
2026-05-05 21:19 19.18310 -59.41177 35185 ft 503 kts 24°
2026-05-05 21:19 19.21469 -59.39594 35417 ft 502 kts 24°
2026-05-05 21:19 19.24620 -59.38014 35649 ft 501 kts 24°
2026-05-05 21:20 19.27771 -59.36433 35875 ft 500 kts 24°
2026-05-05 21:20 19.30912 -59.34857 36115 ft 500 kts 24°
2026-05-05 21:20 19.34060 -59.33276 36320 ft 500 kts 24°
2026-05-05 21:20 19.37198 -59.31699 36534 ft 499 kts 24°
2026-05-05 21:21 19.40335 -59.30123 36744 ft 499 kts 24°
2026-05-05 21:21 19.43464 -59.28550 36958 ft 498 kts 24°
2026-05-05 21:21 19.46605 -59.26970 37098 ft 500 kts 24°
2026-05-05 21:21 19.49756 -59.25386 37118 ft 504 kts 24°
2026-05-05 21:22 19.56087 -59.22199 37121 ft 503 kts 24°
2026-05-05 21:22 19.61352 -59.19545 37115 ft 504 kts 24°
2026-05-05 21:23 19.68727 -59.15825 37117 ft 504 kts 24°
2026-05-05 21:23 19.75070 -59.12623 37117 ft 504 kts 24°
2026-05-05 21:24 19.80337 -59.09961 37118 ft 504 kts 24°
2026-05-05 21:24 19.86676 -59.06756 37118 ft 505 kts 24°
2026-05-05 21:25 19.93021 -59.03545 37126 ft 505 kts 24°
2026-05-05 21:25 19.99367 -59.00330 37122 ft 505 kts 24°
2026-05-05 21:26 20.05641 -58.96954 37125 ft 506 kts 27°
2026-05-05 21:26 20.11791 -58.93313 37125 ft 506 kts 28°
2026-05-05 21:27 20.17952 -58.89669 37124 ft 506 kts 27°
2026-05-05 21:27 20.24138 -58.86067 37125 ft 506 kts 27°
2026-05-05 21:28 20.30334 -58.82482 37126 ft 506 kts 27°
2026-05-05 21:28 20.36529 -58.78899 37128 ft 507 kts 27°
2026-05-05 21:29 20.42691 -58.75329 37130 ft 508 kts 27°
2026-05-05 21:29 20.48901 -58.71725 37129 ft 508 kts 27°
2026-05-05 21:30 20.55115 -58.68116 37132 ft 508 kts 27°
2026-05-05 21:30 20.61326 -58.64505 37135 ft 508 kts 27°
2026-05-05 21:31 20.67547 -58.60885 37133 ft 509 kts 27°
2026-05-05 21:31 20.73775 -58.57258 37132 ft 509 kts 27°
2026-05-05 21:32 20.79995 -58.53632 37138 ft 509 kts 27°
2026-05-05 21:32 20.86213 -58.50003 37140 ft 509 kts 27°
2026-05-05 21:33 20.92438 -58.46368 37136 ft 510 kts 27°
2026-05-05 21:33 20.98666 -58.42727 37134 ft 510 kts 27°
2026-05-05 21:34 21.04900 -58.39079 37139 ft 510 kts 27°
2026-05-05 21:34 21.11129 -58.35430 37147 ft 510 kts 27°
2026-05-05 21:35 21.17328 -58.31795 37144 ft 511 kts 27°
2026-05-05 21:35 21.23565 -58.28135 37144 ft 511 kts 27°
2026-05-05 21:36 21.29793 -58.24476 37138 ft 511 kts 27°
2026-05-05 21:36 21.36043 -58.20800 37139 ft 511 kts 27°
2026-05-05 21:37 21.42279 -58.17130 37144 ft 511 kts 27°
2026-05-05 21:37 21.48507 -58.13460 37143 ft 511 kts 27°
2026-05-05 21:38 21.54739 -58.09785 37143 ft 511 kts 27°
2026-05-05 21:38 21.60966 -58.06109 37149 ft 511 kts 27°
2026-05-05 21:39 21.67193 -58.02429 37147 ft 511 kts 27°
2026-05-05 21:39 21.73430 -57.98740 37146 ft 512 kts 27°
2026-05-05 21:40 21.79667 -57.95047 37149 ft 512 kts 27°
2026-05-05 21:40 21.85910 -57.91346 37156 ft 511 kts 27°
2026-05-05 21:41 21.92096 -57.87676 37151 ft 512 kts 27°
2026-05-05 21:41 21.98337 -57.83969 37151 ft 512 kts 27°
2026-05-05 21:42 22.04583 -57.80256 37154 ft 512 kts 27°
2026-05-05 21:42 22.10820 -57.76544 37160 ft 512 kts 27°
2026-05-05 21:43 22.17060 -57.72827 37157 ft 512 kts 27°
2026-05-05 21:43 22.23302 -57.69105 37159 ft 513 kts 27°
2026-05-05 21:44 22.29545 -57.65378 37155 ft 513 kts 27°
2026-05-05 21:44 22.35748 -57.61671 37159 ft 512 kts 27°
2026-05-05 21:45 22.41994 -57.57935 37155 ft 513 kts 27°
2026-05-05 21:45 22.48248 -57.54191 37153 ft 513 kts 27°
2026-05-05 21:46 22.54492 -57.50447 37162 ft 513 kts 27°
2026-05-05 21:46 22.60738 -57.46700 37160 ft 513 kts 27°
2026-05-05 21:47 22.66987 -57.42946 37161 ft 514 kts 27°
2026-05-05 21:47 22.73242 -57.39185 37162 ft 514 kts 27°
2026-05-05 21:48 22.79457 -57.35444 37163 ft 514 kts 27°
2026-05-05 21:48 22.85706 -57.31678 37169 ft 514 kts 27°
2026-05-05 21:49 22.91960 -57.27906 37159 ft 514 kts 27°
2026-05-05 21:49 22.98217 -57.24128 37162 ft 515 kts 27°
2026-05-05 21:50 23.04476 -57.20344 37170 ft 515 kts 27°
2026-05-05 21:50 23.10731 -57.16559 37168 ft 515 kts 27°
2026-05-05 21:51 23.16996 -57.12764 37165 ft 516 kts 27°
2026-05-05 21:51 23.23267 -57.08961 37169 ft 516 kts 27°
2026-05-05 21:52 23.32657 -57.03258 37167 ft 515 kts 27°
2026-05-05 21:53 23.38925 -56.99447 37162 ft 516 kts 27°
2026-05-05 21:53 23.45197 -56.95629 37165 ft 516 kts 27°
2026-05-05 21:54 23.51465 -56.91808 37167 ft 516 kts 27°
2026-05-05 21:54 23.57707 -56.88000 37174 ft 517 kts 27°
2026-05-05 21:55 23.63990 -56.84162 37168 ft 517 kts 27°
2026-05-05 21:55 23.70267 -56.80324 37186 ft 517 kts 27°
2026-05-05 21:56 23.76535 -56.76487 37183 ft 517 kts 27°
2026-05-05 21:56 23.82808 -56.72643 37172 ft 517 kts 27°
2026-05-05 21:57 23.89072 -56.68800 37191 ft 517 kts 27°
2026-05-05 21:57 23.95297 -56.64977 37187 ft 517 kts 27°
2026-05-05 21:58 24.01608 -56.61096 37177 ft 517 kts 27°
2026-05-05 21:58 24.07838 -56.57261 37173 ft 518 kts 27°
2026-05-05 21:59 24.14113 -56.53394 37187 ft 517 kts 27°
2026-05-05 21:59 24.20375 -56.49530 37179 ft 516 kts 27°
2026-05-05 22:00 24.26636 -56.45662 37181 ft 516 kts 27°
2026-05-05 22:00 24.32899 -56.41790 37188 ft 517 kts 27°
2026-05-05 22:01 24.39169 -56.37908 37186 ft 517 kts 27°
2026-05-05 22:01 24.45391 -56.34052 37184 ft 517 kts 27°
2026-05-05 22:02 24.51699 -56.30137 37180 ft 518 kts 27°
2026-05-05 22:02 24.57922 -56.26271 37184 ft 517 kts 27°
2026-05-05 22:03 24.64182 -56.22377 37185 ft 517 kts 27°
2026-05-05 22:03 24.70444 -56.18478 37193 ft 517 kts 27°
2026-05-05 22:04 24.76704 -56.14576 37189 ft 518 kts 27°
2026-05-05 22:04 24.82971 -56.10664 37192 ft 518 kts 27°
2026-05-05 22:05 24.89239 -56.06747 37189 ft 518 kts 27°
2026-05-05 22:05 24.95514 -56.02821 37193 ft 518 kts 27°
2026-05-05 22:06 25.01752 -55.98891 37190 ft 520 kts 29°
2026-05-05 22:06 25.07765 -55.94439 37192 ft 521 kts 33°
2026-05-05 22:07 25.13653 -55.89778 37197 ft 521 kts 33°
2026-05-05 22:07 25.19592 -55.85159 37197 ft 522 kts 33°
2026-05-05 22:08 25.25566 -55.80594 37197 ft 522 kts 32°
2026-05-05 22:08 25.31549 -55.76045 37197 ft 522 kts 32°
2026-05-05 22:09 25.37528 -55.71492 37202 ft 521 kts 32°
2026-05-05 22:09 25.43506 -55.66932 37200 ft 522 kts 32°
2026-05-05 22:10 25.49448 -55.62390 37200 ft 522 kts 32°
2026-05-05 22:10 25.55426 -55.57816 37203 ft 522 kts 32°
2026-05-05 22:11 25.61403 -55.53237 37205 ft 524 kts 32°
2026-05-05 22:11 25.67394 -55.48642 37201 ft 523 kts 32°
2026-05-05 22:12 25.73383 -55.44042 37209 ft 523 kts 32°
2026-05-05 22:12 25.79362 -55.39444 37207 ft 523 kts 32°
2026-05-05 22:13 25.84384 -55.35578 37207 ft 524 kts 32°
2026-05-05 22:13 25.90373 -55.30962 37208 ft 524 kts 32°
2026-05-05 22:14 25.96325 -55.26369 37207 ft 524 kts 32°
2026-05-05 22:14 26.02311 -55.21743 37213 ft 524 kts 32°
2026-05-05 22:15 26.08300 -55.17109 37216 ft 523 kts 33°
2026-05-05 22:15 26.14281 -55.12476 37210 ft 523 kts 33°
2026-05-05 22:16 26.20255 -55.07843 37220 ft 524 kts 33°
2026-05-05 22:16 26.26237 -55.03197 37216 ft 524 kts 33°
2026-05-05 22:17 26.32223 -54.98542 37215 ft 525 kts 33°
2026-05-05 22:17 26.38203 -54.93886 37213 ft 524 kts 33°
2026-05-05 22:18 26.44178 -54.89227 37214 ft 524 kts 32°
2026-05-05 22:18 26.50126 -54.84584 37214 ft 525 kts 33°
2026-05-05 22:19 26.56111 -54.79906 37216 ft 525 kts 33°
2026-05-05 22:19 26.62101 -54.75218 37218 ft 525 kts 33°
2026-05-05 22:20 26.68088 -54.70526 37216 ft 525 kts 32°
2026-05-05 22:20 26.74072 -54.65830 37217 ft 525 kts 33°
2026-05-05 22:21 26.80054 -54.61130 37219 ft 525 kts 33°
2026-05-05 22:21 26.86036 -54.56423 37219 ft 526 kts 32°
2026-05-05 22:22 26.92027 -54.51704 37219 ft 527 kts 33°
2026-05-05 22:22 26.98020 -54.46976 37221 ft 526 kts 32°
2026-05-05 22:23 27.03996 -54.42255 37223 ft 526 kts 32°
2026-05-05 22:23 27.09981 -54.37522 37222 ft 526 kts 32°
2026-05-05 22:24 27.15967 -54.32780 37224 ft 527 kts 32°
2026-05-05 22:24 27.21952 -54.28034 37239 ft 527 kts 32°
2026-05-05 22:25 27.27948 -54.23272 37221 ft 528 kts 32°
2026-05-05 22:25 27.33941 -54.18506 37224 ft 527 kts 33°
2026-05-05 22:26 27.39882 -54.13775 37222 ft 526 kts 33°
2026-05-05 22:26 27.45871 -54.09000 37225 ft 527 kts 32°
2026-05-05 22:27 27.51862 -54.04217 37227 ft 528 kts 33°
2026-05-05 22:27 27.57853 -53.99427 37220 ft 528 kts 33°
2026-05-05 22:28 27.63839 -53.94633 37226 ft 527 kts 33°
2026-05-05 22:28 27.69824 -53.89836 37227 ft 528 kts 33°
2026-05-05 22:29 27.75810 -53.85030 37232 ft 528 kts 33°
2026-05-05 22:29 27.81794 -53.80219 37236 ft 528 kts 32°
2026-05-05 22:30 27.87751 -53.75424 37232 ft 529 kts 32°
2026-05-05 22:30 27.93743 -53.70593 37232 ft 528 kts 33°
2026-05-05 22:31 27.99710 -53.65775 37230 ft 526 kts 33°
2026-05-05 22:31 28.05660 -53.60965 37232 ft 526 kts 33°
2026-05-05 22:32 28.11612 -53.56147 37232 ft 526 kts 33°
2026-05-05 22:32 28.17571 -53.51317 37230 ft 526 kts 33°
2026-05-05 22:33 28.23523 -53.46486 37234 ft 527 kts 33°
2026-05-05 22:33 28.29487 -53.41638 37235 ft 528 kts 33°
2026-05-05 22:34 28.35419 -53.36808 37234 ft 528 kts 33°
2026-05-05 22:34 28.41389 -53.31941 37234 ft 528 kts 33°
2026-05-05 22:35 28.47371 -53.27058 37234 ft 529 kts 33°
2026-05-05 22:35 28.53342 -53.22176 37235 ft 528 kts 33°
2026-05-05 22:36 28.59306 -53.17292 37237 ft 528 kts 33°
2026-05-05 22:36 28.65270 -53.12404 37239 ft 529 kts 33°
2026-05-05 22:37 28.71249 -53.07495 37239 ft 529 kts 33°
2026-05-05 22:37 28.77219 -53.02586 37248 ft 529 kts 33°
2026-05-05 22:38 28.83200 -52.97661 37238 ft 529 kts 33°
2026-05-05 22:38 28.89128 -52.92772 37243 ft 529 kts 33°
2026-05-05 22:39 28.95087 -52.87851 37249 ft 529 kts 33°
2026-05-05 22:39 29.01059 -52.82912 37243 ft 530 kts 33°
2026-05-05 22:40 29.07028 -52.77970 37243 ft 530 kts 33°
2026-05-05 22:40 29.12997 -52.73018 37256 ft 529 kts 33°
2026-05-05 22:41 29.18952 -52.68071 37246 ft 529 kts 33°
2026-05-05 22:41 29.24915 -52.63112 37247 ft 529 kts 33°
2026-05-05 22:42 29.30873 -52.58148 37261 ft 529 kts 33°
2026-05-05 22:42 29.36831 -52.53177 37247 ft 530 kts 33°
2026-05-05 22:43 29.42798 -52.48192 37248 ft 530 kts 33°
2026-05-05 22:43 29.48751 -52.43210 37260 ft 529 kts 33°
2026-05-05 22:44 29.54666 -52.38253 37253 ft 530 kts 33°
2026-05-05 22:44 29.60637 -52.33242 37248 ft 530 kts 33°
2026-05-05 22:45 29.66599 -52.28231 37256 ft 530 kts 33°
2026-05-05 22:45 29.72519 -52.23247 37254 ft 530 kts 32°
2026-05-05 22:46 29.78474 -52.18226 37251 ft 530 kts 33°
2026-05-05 22:46 29.84421 -52.13205 37252 ft 530 kts 33°
2026-05-05 22:47 29.90367 -52.08177 37264 ft 530 kts 33°
2026-05-05 22:47 29.96325 -52.03131 37258 ft 530 kts 33°
2026-05-05 22:48 30.02244 -51.98082 37251 ft 530 kts 34°
2026-05-05 22:48 30.08007 -51.92742 37251 ft 532 kts 36°
2026-05-05 22:49 30.13680 -51.87341 37263 ft 532 kts 36°
2026-05-05 22:49 30.19415 -51.81929 37265 ft 532 kts 36°
2026-05-05 22:50 30.25162 -51.76547 37259 ft 532 kts 35°
2026-05-05 22:50 30.30913 -51.71166 37262 ft 531 kts 35°
2026-05-05 22:51 30.36659 -51.65781 37277 ft 531 kts 35°
2026-05-05 22:51 30.42411 -51.60381 37260 ft 532 kts 35°
2026-05-05 22:52 30.48156 -51.54977 37259 ft 532 kts 35°
2026-05-05 22:52 30.53896 -51.49568 37267 ft 531 kts 35°
2026-05-05 22:53 30.59631 -51.44157 37263 ft 532 kts 35°
2026-05-05 22:53 30.65332 -51.38769 37265 ft 532 kts 35°
2026-05-05 22:54 30.71066 -51.33341 37266 ft 532 kts 35°
2026-05-05 22:54 30.76807 -51.27898 37268 ft 532 kts 35°
2026-05-05 22:55 30.82539 -51.22455 37271 ft 532 kts 35°
2026-05-05 22:55 30.88268 -51.17006 37272 ft 532 kts 35°
2026-05-05 22:56 30.94008 -51.11538 37271 ft 533 kts 35°
2026-05-05 22:56 30.99708 -51.06099 37271 ft 533 kts 35°
2026-05-05 22:57 31.05449 -51.00612 37278 ft 534 kts 35°
2026-05-05 22:57 31.11201 -50.95106 37277 ft 535 kts 35°
2026-05-05 22:58 31.16956 -50.89588 37278 ft 535 kts 35°
2026-05-05 22:58 31.22711 -50.84061 37270 ft 535 kts 35°
2026-05-05 22:59 31.28458 -50.78532 37282 ft 535 kts 35°
2026-05-05 22:59 31.33248 -50.73918 37277 ft 535 kts 35°
2026-05-05 23:00 31.41885 -50.65583 37283 ft 538 kts 35°
2026-05-05 23:00 31.47649 -50.60007 37275 ft 536 kts 35°
2026-05-05 23:01 31.53393 -50.54441 37281 ft 535 kts 36°
2026-05-05 23:01 31.59127 -50.48877 37281 ft 535 kts 36°
2026-05-05 23:02 31.64824 -50.43341 37277 ft 535 kts 36°
2026-05-05 23:02 31.70593 -50.37724 37275 ft 535 kts 35°
2026-05-05 23:03 31.76321 -50.32139 37290 ft 535 kts 36°
2026-05-05 23:03 31.82017 -50.26575 37300 ft 535 kts 36°
2026-05-05 23:04 31.87756 -50.20960 37291 ft 538 kts 36°
2026-05-05 23:04 31.93506 -50.15324 37289 ft 537 kts 36°
2026-05-05 23:05 31.99236 -50.09697 37282 ft 536 kts 35°
2026-05-05 23:05 32.04993 -50.04038 37283 ft 539 kts 35°
2026-05-05 23:06 32.10759 -49.98358 37292 ft 540 kts 36°
2026-05-05 23:06 32.16478 -49.92713 37308 ft 539 kts 35°
2026-05-05 23:07 32.22234 -49.87024 37291 ft 540 kts 35°
2026-05-05 23:07 32.27985 -49.81329 37306 ft 540 kts 35°
2026-05-05 23:08 32.33740 -49.75622 37296 ft 541 kts 35°
2026-05-05 23:08 32.39506 -49.69893 37295 ft 540 kts 35°
2026-05-05 23:09 32.45252 -49.64173 37298 ft 539 kts 35°
2026-05-05 23:09 32.50994 -49.58448 37296 ft 539 kts 36°
2026-05-05 23:10 32.56735 -49.52716 37298 ft 539 kts 36°
2026-05-05 23:10 32.62463 -49.46985 37299 ft 538 kts 36°
2026-05-05 23:11 32.68186 -49.41249 37298 ft 538 kts 36°
2026-05-05 23:11 32.73860 -49.35553 37312 ft 538 kts 36°
2026-05-05 23:12 32.79579 -49.29802 37294 ft 538 kts 36°
2026-05-05 23:12 32.85282 -49.24057 37302 ft 537 kts 36°
2026-05-05 23:13 32.90974 -49.18313 37300 ft 537 kts 36°
2026-05-05 23:13 32.96666 -49.12559 37303 ft 537 kts 36°
2026-05-05 23:14 33.02358 -49.06795 37305 ft 537 kts 36°
2026-05-05 23:14 33.08042 -49.01029 37305 ft 536 kts 36°
2026-05-05 23:15 33.13724 -48.95254 37303 ft 536 kts 36°
2026-05-05 23:15 33.19388 -48.89489 37306 ft 536 kts 36°
2026-05-05 23:16 33.25037 -48.83728 37306 ft 537 kts 36°
2026-05-05 23:16 33.30715 -48.77927 37321 ft 537 kts 36°
2026-05-05 23:17 33.36394 -48.72115 37308 ft 537 kts 36°
2026-05-05 23:17 33.42071 -48.66293 37309 ft 537 kts 36°
2026-05-05 23:18 33.47741 -48.60469 37312 ft 536 kts 36°
2026-05-05 23:18 33.53407 -48.54639 37311 ft 536 kts 36°
2026-05-05 23:19 33.59067 -48.48805 37327 ft 536 kts 36°
2026-05-05 23:19 33.64721 -48.42966 37297 ft 535 kts 36°
2026-05-05 23:20 33.70357 -48.37134 37311 ft 534 kts 36°
2026-05-05 23:20 33.75977 -48.31311 37312 ft 533 kts 36°
2026-05-05 23:21 33.81555 -48.25520 37309 ft 533 kts 36°
2026-05-05 23:21 33.87170 -48.19681 37321 ft 533 kts 36°
2026-05-05 23:22 33.92775 -48.13840 37312 ft 533 kts 36°
2026-05-05 23:22 33.98382 -48.07986 37311 ft 533 kts 36°
2026-05-05 23:23 34.03986 -48.02126 37311 ft 533 kts 36°
2026-05-05 23:23 34.09580 -47.96265 37311 ft 533 kts 36°
2026-05-05 23:24 34.15173 -47.90394 37317 ft 532 kts 36°
2026-05-05 23:24 34.20766 -47.84513 37314 ft 533 kts 36°
2026-05-05 23:25 34.26353 -47.78629 37308 ft 533 kts 36°
2026-05-05 23:25 34.31934 -47.72737 37314 ft 532 kts 36°
2026-05-05 23:26 34.37507 -47.66845 37314 ft 532 kts 36°
2026-05-05 23:26 34.43090 -47.60932 37314 ft 532 kts 36°
2026-05-05 23:27 34.48623 -47.55061 37315 ft 532 kts 36°
2026-05-05 23:27 34.54182 -47.49149 37325 ft 531 kts 36°
2026-05-05 23:28 34.59739 -47.43231 37314 ft 532 kts 36°
2026-05-05 23:28 34.65119 -47.37492 37310 ft 532 kts 36°
2026-05-05 23:29 34.69724 -47.32569 37315 ft 531 kts 36°
2026-05-05 23:29 34.75270 -47.26630 37317 ft 531 kts 36°
2026-05-05 23:30 34.80815 -47.20683 37323 ft 531 kts 36°
2026-05-05 23:30 34.86357 -47.14727 37317 ft 531 kts 36°
2026-05-05 23:31 34.91887 -47.08772 37317 ft 530 kts 36°
2026-05-05 23:31 34.97411 -47.02815 37312 ft 530 kts 36°
2026-05-05 23:32 35.02888 -46.96759 37313 ft 533 kts 39°
2026-05-05 23:32 35.07996 -46.90253 37315 ft 534 kts 41°
2026-05-05 23:33 35.13053 -46.83624 37316 ft 533 kts 41°
2026-05-05 23:33 35.18157 -46.77054 37333 ft 532 kts 40°
2026-05-05 23:34 35.23285 -46.70529 37320 ft 532 kts 40°
2026-05-05 23:34 35.28417 -46.64008 37318 ft 531 kts 40°
2026-05-05 23:35 35.33544 -46.57477 37316 ft 531 kts 40°
2026-05-05 23:35 35.38654 -46.50950 37316 ft 531 kts 40°
2026-05-05 23:36 35.43759 -46.44415 37317 ft 530 kts 40°
2026-05-05 23:36 35.48862 -46.37871 37317 ft 530 kts 40°
2026-05-05 23:37 35.53927 -46.31361 37325 ft 530 kts 40°
2026-05-05 23:37 35.59019 -46.24805 37323 ft 530 kts 40°
2026-05-05 23:38 35.64109 -46.18238 37319 ft 530 kts 40°
2026-05-05 23:38 35.69190 -46.11670 37317 ft 530 kts 40°
2026-05-05 23:39 35.74266 -46.05094 37324 ft 529 kts 40°
2026-05-05 23:39 35.79339 -45.98510 37322 ft 530 kts 41°
2026-05-05 23:40 35.84411 -45.91915 37325 ft 530 kts 41°
2026-05-05 23:40 35.89481 -45.85309 37325 ft 530 kts 40°
2026-05-05 23:41 35.94546 -45.78696 37325 ft 530 kts 41°
2026-05-05 23:41 35.99613 -45.72067 37328 ft 530 kts 40°
2026-05-05 23:42 36.04671 -45.65437 37327 ft 530 kts 40°
2026-05-05 23:42 36.09728 -45.58794 37338 ft 531 kts 41°
2026-05-05 23:43 36.14779 -45.52148 37330 ft 533 kts 41°
2026-05-05 23:43 36.19857 -45.45451 37333 ft 534 kts 41°
2026-05-05 23:44 36.24940 -45.38732 37333 ft 535 kts 41°
2026-05-05 23:44 36.30028 -45.31994 37332 ft 535 kts 41°
2026-05-05 23:45 36.35113 -45.25246 37333 ft 535 kts 41°
2026-05-05 23:45 36.40196 -45.18487 37335 ft 535 kts 41°
2026-05-05 23:46 36.45272 -45.11723 37337 ft 535 kts 41°
2026-05-05 23:46 36.49495 -45.06086 37337 ft 535 kts 41°
2026-05-05 23:47 36.54566 -44.99303 37336 ft 535 kts 41°
2026-05-05 23:47 36.59633 -44.92514 37339 ft 536 kts 41°
2026-05-05 23:48 36.64714 -44.85692 37342 ft 538 kts 41°
2026-05-05 23:48 36.69776 -44.78881 37348 ft 540 kts 40°
2026-05-05 23:49 36.74888 -44.71987 37340 ft 542 kts 41°
2026-05-05 23:49 36.80000 -44.65076 37342 ft 542 kts 41°
2026-05-05 23:50 36.85115 -44.58147 37344 ft 542 kts 41°
2026-05-05 23:50 36.90224 -44.51212 37341 ft 542 kts 41°
2026-05-05 23:51 36.95337 -44.44259 37344 ft 543 kts 40°
2026-05-05 23:51 37.00449 -44.37293 37343 ft 544 kts 40°
2026-05-05 23:52 37.05560 -44.30311 37344 ft 544 kts 40°
2026-05-05 23:52 37.10677 -44.23307 37346 ft 545 kts 40°
2026-05-05 23:53 37.15791 -44.16291 37374 ft 545 kts 40°
2026-05-05 23:53 37.20900 -44.09266 37351 ft 545 kts 39°
2026-05-05 23:54 37.25969 -44.02283 37355 ft 545 kts 40°
2026-05-05 23:54 37.31069 -43.95242 37363 ft 544 kts 39°
2026-05-05 23:55 37.36151 -43.88210 37358 ft 544 kts 39°
2026-05-05 23:55 37.41234 -43.81163 37358 ft 544 kts 39°
2026-05-05 23:56 37.46312 -43.74106 37360 ft 544 kts 39°
2026-05-05 23:56 37.51382 -43.67044 37361 ft 544 kts 39°
2026-05-05 23:57 37.56459 -43.59958 37358 ft 544 kts 39°
2026-05-05 23:57 37.61524 -43.52872 37362 ft 544 kts 39°
2026-05-05 23:58 37.66598 -43.45759 37358 ft 545 kts 39°
2026-05-05 23:58 37.71633 -43.38685 37356 ft 545 kts 40°
2026-05-05 23:59 37.76699 -43.31550 37357 ft 545 kts 39°
2026-05-05 23:59 37.81762 -43.24403 37357 ft 545 kts 40°
2026-05-06 00:00 37.86820 -43.17248 37391 ft 544 kts 40°
2026-05-06 00:00 37.91867 -43.10093 37372 ft 545 kts 40°
2026-05-06 00:01 37.96916 -43.02919 37374 ft 545 kts 40°
2026-05-06 00:01 38.01963 -42.95732 37374 ft 545 kts 40°
2026-05-06 00:02 38.06966 -42.88591 37374 ft 545 kts 40°
2026-05-06 00:02 38.12009 -42.81377 37374 ft 545 kts 40°
2026-05-06 00:03 38.17036 -42.74170 37373 ft 545 kts 40°
2026-05-06 00:03 38.22061 -42.66949 37373 ft 545 kts 40°
2026-05-06 00:04 38.27080 -42.59722 37374 ft 545 kts 40°
2026-05-06 00:04 38.32094 -42.52484 37373 ft 545 kts 40°
2026-05-06 00:05 38.39613 -42.41602 37375 ft 545 kts 40°
2026-05-06 00:06 38.44616 -42.34336 37371 ft 545 kts 40°
2026-05-06 00:06 38.49615 -42.27061 37377 ft 545 kts 40°
2026-05-06 00:07 38.54613 -42.19771 37382 ft 545 kts 40°
2026-05-06 00:07 38.57108 -42.16126 37583 ft 545 kts 40°
2026-05-06 00:07 38.59564 -42.12532 37918 ft 543 kts 40°
2026-05-06 00:07 38.62050 -42.08892 38224 ft 542 kts 40°
2026-05-06 00:08 38.64528 -42.05258 38492 ft 542 kts 40°
2026-05-06 00:08 38.67006 -42.01623 38723 ft 542 kts 40°
2026-05-06 00:08 38.69485 -41.97982 38932 ft 542 kts 39°
2026-05-06 00:08 38.71959 -41.94345 39129 ft 542 kts 39°
2026-05-06 00:09 38.74431 -41.90705 39330 ft 542 kts 40°
2026-05-06 00:09 38.79389 -41.83389 39378 ft 543 kts 40°
2026-05-06 00:10 38.84339 -41.76066 39382 ft 543 kts 40°
2026-05-06 00:10 38.89283 -41.68738 39380 ft 543 kts 40°
2026-05-06 00:11 38.94230 -41.61390 39384 ft 543 kts 40°
2026-05-06 00:11 38.99169 -41.54035 39394 ft 543 kts 40°
2026-05-06 00:12 39.04098 -41.46680 39374 ft 543 kts 41°
2026-05-06 00:12 39.08987 -41.39367 39386 ft 543 kts 41°
2026-05-06 00:13 39.13911 -41.31984 39372 ft 542 kts 41°
2026-05-06 00:13 39.18817 -41.24612 39377 ft 542 kts 41°
2026-05-06 00:14 39.23722 -41.17223 39388 ft 542 kts 41°
2026-05-06 00:14 39.28624 -41.09822 39382 ft 542 kts 41°
2026-05-06 00:15 39.33523 -41.02408 39374 ft 542 kts 41°
2026-05-06 00:15 39.38417 -40.94984 39376 ft 542 kts 41°
2026-05-06 00:16 39.43308 -40.87547 39380 ft 543 kts 41°
2026-05-06 00:16 39.48205 -40.80084 39388 ft 544 kts 41°
2026-05-06 00:17 39.53102 -40.72602 39379 ft 544 kts 41°
2026-05-06 00:17 39.57991 -40.65116 39376 ft 544 kts 41°
2026-05-06 00:18 39.62881 -40.57608 39378 ft 545 kts 41°
2026-05-06 00:18 39.67766 -40.50090 39378 ft 545 kts 42°
2026-05-06 00:19 39.72619 -40.42602 39380 ft 545 kts 42°
2026-05-06 00:19 39.77499 -40.35054 39371 ft 545 kts 42°
2026-05-06 00:20 39.82371 -40.27501 39370 ft 545 kts 42°
2026-05-06 00:20 39.87238 -40.19939 39379 ft 544 kts 42°
2026-05-06 00:21 39.92095 -40.12372 39370 ft 544 kts 42°
2026-05-06 00:21 39.96910 -40.04854 39379 ft 543 kts 42°
2026-05-06 00:22 40.01441 -39.96884 39368 ft 552 kts 50°
2026-05-06 00:22 40.05254 -39.88960 39367 ft 553 kts 51°
2026-05-06 00:23 40.08427 -39.82161 39365 ft 553 kts 52°
2026-05-06 00:23 40.11739 -39.75028 39366 ft 553 kts 51°
2026-05-06 00:24 40.16199 -39.65428 39362 ft 551 kts 51°
2026-05-06 00:24 40.20185 -39.56853 39359 ft 551 kts 51°
2026-05-06 00:25 40.22345 -39.52200 39367 ft 551 kts 51°
2026-05-06 00:26 40.23383 -39.49961 39361 ft 551 kts 51°
2026-05-06 00:26 40.27347 -39.41395 39360 ft 550 kts 51°
2026-05-06 00:27 40.31308 -39.32813 39358 ft 550 kts 51°
2026-05-06 00:27 40.35258 -39.24229 39358 ft 548 kts 52°
2026-05-06 00:28 40.39184 -39.15670 39343 ft 547 kts 52°
2026-05-06 00:28 40.43107 -39.07101 39360 ft 547 kts 52°
2026-05-06 00:29 40.47021 -38.98526 39356 ft 548 kts 52°
2026-05-06 00:29 40.50930 -38.89937 39340 ft 548 kts 52°
2026-05-06 00:30 40.54813 -38.81381 39350 ft 548 kts 52°
2026-05-06 00:30 40.58709 -38.72770 39348 ft 547 kts 52°
2026-05-06 00:31 40.62595 -38.64159 39345 ft 547 kts 52°
2026-05-06 00:31 40.66480 -38.55525 39347 ft 547 kts 52°
2026-05-06 00:32 40.70344 -38.46913 39346 ft 546 kts 52°
2026-05-06 00:32 40.74201 -38.38293 39343 ft 545 kts 52°
2026-05-06 00:33 40.78047 -38.29676 39345 ft 544 kts 53°
2026-05-06 00:33 40.81876 -38.21068 39342 ft 543 kts 53°
2026-05-06 00:34 40.85051 -38.13915 39340 ft 543 kts 53°
2026-05-06 00:34 40.88868 -38.05293 39343 ft 542 kts 53°
2026-05-06 00:35 40.92666 -37.96687 39342 ft 542 kts 53°
2026-05-06 00:35 40.96457 -37.88075 39343 ft 542 kts 53°
2026-05-06 00:36 41.00242 -37.79453 39346 ft 542 kts 53°
2026-05-06 00:36 41.04021 -37.70819 39341 ft 541 kts 53°
2026-05-06 00:37 41.07787 -37.62188 39343 ft 541 kts 53°
2026-05-06 00:37 41.11551 -37.53539 39341 ft 542 kts 53°
2026-05-06 00:38 41.15288 -37.44928 39342 ft 542 kts 53°
2026-05-06 00:38 41.19040 -37.36256 39341 ft 542 kts 53°
2026-05-06 00:39 41.22781 -37.27584 39344 ft 541 kts 53°
2026-05-06 00:39 41.26512 -37.18911 39341 ft 540 kts 54°
2026-05-06 00:40 41.30241 -37.10219 39360 ft 540 kts 54°
2026-05-06 00:40 41.33959 -37.01526 39342 ft 540 kts 54°
2026-05-06 00:41 41.37664 -36.92840 39344 ft 539 kts 54°
2026-05-06 00:41 41.41362 -36.84144 39347 ft 539 kts 54°
2026-05-06 00:42 41.45046 -36.75453 39344 ft 538 kts 54°
2026-05-06 00:42 41.48695 -36.66823 39348 ft 538 kts 54°
2026-05-06 00:43 41.52368 -36.58111 39350 ft 538 kts 54°
2026-05-06 00:43 41.56031 -36.49395 39347 ft 538 kts 54°
2026-05-06 00:44 41.59688 -36.40670 39334 ft 539 kts 54°
2026-05-06 00:44 41.63354 -36.31901 39343 ft 541 kts 55°
2026-05-06 00:45 41.67014 -36.23112 39344 ft 541 kts 55°
2026-05-06 00:45 41.70669 -36.14312 39343 ft 541 kts 55°
2026-05-06 00:46 41.74318 -36.05501 39349 ft 541 kts 55°
2026-05-06 00:46 41.77929 -35.96754 39346 ft 540 kts 55°
2026-05-06 00:47 41.81554 -35.87947 39347 ft 539 kts 55°
2026-05-06 00:47 41.85175 -35.79128 39356 ft 539 kts 55°
2026-05-06 00:48 41.88781 -35.70316 39348 ft 538 kts 55°
2026-05-06 00:48 41.92379 -35.61496 39343 ft 538 kts 55°
2026-05-06 00:49 41.95971 -35.52668 39347 ft 538 kts 56°
2026-05-06 00:49 41.99551 -35.43839 39345 ft 537 kts 56°
2026-05-06 00:50 42.03119 -35.35014 39348 ft 537 kts 56°
2026-05-06 00:50 42.06681 -35.26179 39354 ft 537 kts 56°
2026-05-06 00:51 42.10234 -35.17338 39345 ft 536 kts 56°
2026-05-06 00:51 42.13779 -35.08492 39345 ft 536 kts 56°
2026-05-06 00:52 42.17291 -34.99699 39348 ft 536 kts 56°
2026-05-06 00:52 42.20823 -34.90831 39349 ft 536 kts 56°
2026-05-06 00:53 42.24340 -34.81971 39350 ft 535 kts 56°
2026-05-06 00:53 42.27849 -34.73107 39354 ft 535 kts 56°
2026-05-06 00:54 42.31350 -34.64235 39348 ft 534 kts 56°
2026-05-06 00:54 42.34838 -34.55368 39341 ft 534 kts 56°
2026-05-06 00:55 42.38322 -34.46486 39352 ft 534 kts 56°
2026-05-06 00:55 42.41793 -34.37610 39351 ft 533 kts 57°
2026-05-06 00:56 42.45252 -34.28736 39346 ft 533 kts 57°
2026-05-06 00:56 42.48685 -34.19901 39355 ft 533 kts 57°
2026-05-06 00:57 42.52131 -34.11007 39352 ft 533 kts 57°
2026-05-06 00:57 42.55570 -34.02101 39349 ft 533 kts 57°
2026-05-06 00:58 42.59002 -33.93188 39349 ft 533 kts 57°
2026-05-06 00:58 42.62430 -33.84255 39352 ft 533 kts 57°
2026-05-06 00:59 42.65854 -33.75308 39352 ft 533 kts 57°
2026-05-06 00:59 42.69245 -33.66416 39352 ft 533 kts 57°
2026-05-06 01:00 42.72651 -33.57457 39355 ft 533 kts 57°
2026-05-06 01:00 42.76053 -33.48483 39357 ft 534 kts 57°
2026-05-06 01:01 42.79449 -33.39494 39353 ft 534 kts 57°
2026-05-06 01:01 42.82839 -33.30492 39354 ft 534 kts 57°
2026-05-06 01:02 42.86225 -33.21474 39355 ft 534 kts 57°
2026-05-06 01:02 42.89605 -33.12443 39357 ft 534 kts 57°
2026-05-06 01:03 42.92951 -33.03473 39354 ft 534 kts 57°
2026-05-06 01:03 42.96314 -32.94427 39349 ft 534 kts 57°
2026-05-06 01:04 42.99676 -32.85359 39351 ft 534 kts 57°
2026-05-06 01:04 43.03021 -32.76304 39357 ft 534 kts 58°
2026-05-06 01:05 43.06350 -32.67268 39355 ft 535 kts 58°
2026-05-06 01:05 43.09693 -32.58160 39354 ft 536 kts 58°
2026-05-06 01:06 43.13032 -32.49036 39354 ft 536 kts 58°
2026-05-06 01:06 43.16363 -32.39902 39355 ft 536 kts 58°
2026-05-06 01:07 43.19689 -32.30752 39355 ft 537 kts 58°
2026-05-06 01:07 43.23009 -32.21588 39360 ft 537 kts 58°
2026-05-06 01:08 43.26326 -32.12401 39349 ft 538 kts 58°
2026-05-06 01:08 43.29643 -32.03188 39366 ft 539 kts 58°
2026-05-06 01:09 43.32956 -31.93953 39352 ft 539 kts 58°
2026-05-06 01:09 43.36258 -31.84714 39364 ft 539 kts 58°
2026-05-06 01:10 43.39558 -31.75456 39356 ft 539 kts 58°
2026-05-06 01:10 43.42851 -31.66183 39356 ft 539 kts 58°
2026-05-06 01:11 43.46112 -31.56968 39368 ft 539 kts 58°
2026-05-06 01:11 43.49390 -31.47676 39357 ft 539 kts 58°
2026-05-06 01:12 43.52661 -31.38371 39355 ft 539 kts 58°
2026-05-06 01:12 43.55923 -31.29061 39368 ft 539 kts 58°
2026-05-06 01:13 43.59175 -31.19749 39356 ft 539 kts 58°
2026-05-06 01:13 43.62418 -31.10428 39352 ft 539 kts 59°
2026-05-06 01:14 43.67274 -30.96418 39359 ft 539 kts 59°
2026-05-06 01:14 43.70500 -30.87068 39355 ft 539 kts 59°
2026-05-06 01:15 43.73721 -30.77700 39356 ft 539 kts 59°
2026-05-06 01:15 43.76912 -30.68388 39366 ft 539 kts 59°
2026-05-06 01:16 43.80111 -30.59017 39347 ft 538 kts 59°
2026-05-06 01:16 43.83300 -30.49645 39362 ft 537 kts 59°
2026-05-06 01:17 43.86488 -30.40247 39384 ft 537 kts 59°
2026-05-06 01:17 43.89639 -30.30922 39361 ft 537 kts 59°
2026-05-06 01:18 43.92798 -30.21542 39361 ft 536 kts 59°
2026-05-06 01:18 43.95948 -30.12157 39361 ft 536 kts 59°
2026-05-06 01:19 43.99088 -30.02763 39363 ft 536 kts 59°
2026-05-06 01:19 44.01769 -29.93041 39360 ft 540 kts 65°
2026-05-06 01:20 44.04257 -29.83190 39363 ft 540 kts 65°
2026-05-06 01:20 44.06706 -29.73307 39362 ft 540 kts 66°
2026-05-06 01:21 44.09125 -29.63521 39362 ft 538 kts 66°
2026-05-06 01:21 44.11557 -29.53681 39368 ft 538 kts 66°
2026-05-06 01:22 44.13984 -29.43832 39376 ft 538 kts 66°
2026-05-06 01:22 44.16400 -29.33981 39365 ft 537 kts 66°
2026-05-06 01:23 44.18804 -29.24134 39368 ft 537 kts 66°
2026-05-06 01:23 44.20796 -29.15945 39368 ft 537 kts 66°
2026-05-06 01:24 44.23187 -29.06074 39370 ft 537 kts 66°
2026-05-06 01:24 44.25567 -28.96208 39368 ft 537 kts 66°
2026-05-06 01:25 44.27936 -28.86343 39368 ft 537 kts 66°
2026-05-06 01:25 44.30301 -28.76448 39376 ft 537 kts 66°
2026-05-06 01:26 44.32653 -28.66567 39365 ft 535 kts 66°
2026-05-06 01:26 44.34993 -28.56692 39365 ft 535 kts 67°
2026-05-06 01:27 44.37307 -28.46884 39366 ft 535 kts 67°
2026-05-06 01:27 44.39626 -28.37009 39365 ft 533 kts 66°
2026-05-06 01:28 44.41926 -28.27167 39365 ft 532 kts 66°
2026-05-06 01:28 44.44221 -28.17315 39365 ft 532 kts 67°
2026-05-06 01:29 44.46504 -28.07464 39366 ft 532 kts 66°
2026-05-06 01:29 44.48760 -27.97670 39359 ft 526 kts 66°
2026-05-06 01:30 44.50996 -27.87937 39365 ft 525 kts 66°
2026-05-06 01:30 44.53227 -27.78187 39363 ft 525 kts 66°
2026-05-06 01:31 44.55448 -27.68436 39357 ft 525 kts 66°
2026-05-06 01:31 44.57659 -27.58680 39363 ft 525 kts 67°
2026-05-06 01:32 44.59864 -27.48904 39363 ft 525 kts 67°
2026-05-06 01:32 44.62061 -27.39119 39372 ft 525 kts 66°
2026-05-06 01:33 44.64224 -27.29434 39362 ft 523 kts 66°
2026-05-06 01:33 44.66395 -27.19679 39359 ft 523 kts 66°
2026-05-06 01:34 44.68556 -27.09930 39353 ft 523 kts 67°
2026-05-06 01:34 44.70706 -27.00175 39355 ft 522 kts 66°
2026-05-06 01:35 44.72845 -26.90427 39355 ft 521 kts 66°
2026-05-06 01:35 44.74976 -26.80677 39354 ft 521 kts 66°
2026-05-06 01:36 44.77099 -26.70915 39375 ft 522 kts 66°
2026-05-06 01:36 44.79211 -26.61156 39354 ft 521 kts 66°
2026-05-06 01:37 44.81313 -26.51399 39354 ft 521 kts 66°
2026-05-06 01:37 44.83406 -26.41636 39359 ft 521 kts 66°
2026-05-06 01:38 44.85494 -26.31849 39360 ft 520 kts 66°
2026-05-06 01:38 44.87555 -26.22150 39354 ft 520 kts 66°
2026-05-06 01:39 44.89622 -26.12376 39354 ft 520 kts 66°
2026-05-06 01:39 44.91681 -26.02595 39354 ft 520 kts 66°
2026-05-06 01:40 44.93727 -25.92816 39355 ft 518 kts 66°
2026-05-06 01:40 44.95762 -25.83051 39357 ft 518 kts 66°
2026-05-06 01:41 44.97785 -25.73299 39355 ft 518 kts 66°
2026-05-06 01:41 44.99788 -25.63595 39365 ft 517 kts 66°
2026-05-06 01:42 45.01789 -25.53846 39352 ft 516 kts 66°
2026-05-06 01:42 45.03780 -25.44106 39346 ft 516 kts 66°
2026-05-06 01:43 45.05765 -25.34349 39356 ft 516 kts 66°
2026-05-06 01:43 45.07740 -25.24597 39352 ft 515 kts 66°
2026-05-06 01:44 45.09704 -25.14843 39345 ft 515 kts 66°
2026-05-06 01:44 45.11661 -25.05083 39348 ft 515 kts 67°
2026-05-06 01:45 45.13611 -24.95310 39376 ft 515 kts 67°
2026-05-06 01:45 45.15549 -24.85542 39341 ft 515 kts 67°
2026-05-06 01:46 45.17468 -24.75826 39341 ft 515 kts 67°
2026-05-06 01:46 45.19392 -24.66037 39339 ft 515 kts 67°
2026-05-06 01:47 45.21307 -24.56243 39343 ft 515 kts 67°
2026-05-06 01:47 45.23209 -24.46459 39335 ft 515 kts 67°
2026-05-06 01:48 45.25105 -24.36666 39336 ft 514 kts 67°
2026-05-06 01:48 45.26992 -24.26870 39336 ft 515 kts 67°
2026-05-06 01:49 45.28872 -24.17057 39333 ft 515 kts 67°